星链-36591(STARLINK-36591)

导读 | 豆包AI

STARLINK-36591是由美国发射的一颗星链卫星,发射于2026年1月25日,隶属于SpaceX公司的星链星座项目。星链项目旨在构建全球卫星互联网星座,为全球偏远、网络覆盖薄弱区域提供高速低延迟的宽带互联网服务,这颗卫星将进一步扩充星链星座的组网规模与服务覆盖能力。

基本信息
目录编号:
67576
目录名称:
STARLINK-36591
国际标识:
2026-016R
轨道中心:
EARTH
卫星名称:
星链-36591
卫星全名:
星链-36591(STARLINK-36591)
卫星状态:
在轨 (已飞行69 天)
发射日期:
2026-01-25 UTC
国别 :
美国 (US)
星等 :
--
轨道信息
数据来源 国际轨道数据 AOE轨道数据
星历时间 2026-04-04T01:16:18+0800
7小时前
查看轨道信息
2026-03-31T21:00:00+0800
3天前
查看轨道信息
半长轴 6843.727km 6843.758km
偏心率 0.0001603 0.0001018
轨道倾角 97.282° 97.284°
近地点辐角 79.943° 132.932°
升交点赤经 154.832° 151.700°
平近点角 280.199° 334.878°
近地点 464.492km 464.924km
远地点 466.688km 466.318km
周期 93.907分钟 93.908分钟
每日圈数 15.334293 15.33419
详细信息
固有亮度:
5
最大亮度:
2.5
卫星平台:
Starlink V1.0
覆盖范围:
全球
运营商:
太空探索技术公司
运营商所在国:
美国
制造商(研发单位):
太空探索技术公司
制造商所在国:
美国
使用方式:
暂无
卫星简介
Starlink 计划是 SpaceX 推出的全球卫星互联网项目,通过发射低轨道卫星,为全球尤其是偏远地区提供高速、低延迟的互联网服务。自 2019 年起,Starlink 已部署数千颗卫星,旨在缩小全球数字鸿沟,推动互联网普及。该项目还为军事、航空等行业提供通信支持,带来广泛经济效益。
2D轨道图
3D轨道图
轨道高度分析图
轨道倾角分析图
轨道综合分析图
查看轨道综合分析图